This demonstration page uses our WeatherBlox Daily Observations layout. Learn more.

Left ArrowRight Arrow

Hourly Observations for October 17, 2019

Temp ( °F °C ) Dew Point ( °F °C ) Humidity (%) Winds ( mph kmh ) Pressure ( in mb ) Visibility ( mi km ) Precip ( " mm )
12:53 am 00:53 Clear 52 11.1 40 4.4 64 64 Calm 29.94 1014 10 16 0.00 0.00
1:53 am 01:53 Clear 51 10.6 40 4.4 66 66 WSW 3 6 29.94 1014 10 16 0.00 0.00
2:53 am 02:53 Clear 50 10 41 5 71 71 WSW 5 7 29.96 1015 10 16 0.00 0.00
3:53 am 03:53 Clear 47 8.3 40 4.4 77 77 W 5 7 29.95 1014 10 16 0.00 0.00
4:53 am 04:53 Clear 47 8.3 39 3.9 74 74 NW 5 7 29.95 1014 10 16 0.00 0.00
5:53 am 05:53 Clear 47 8.3 39 3.9 74 74 VRB 3 6 29.96 1015 10 16 0.00 0.00
6:53 am 06:53 Clear 46 7.8 39 3.9 77 77 Calm 29.97 1015 10 16 0.00 0.00
7:53 am 07:53 Sunny 45 7.2 39 3.9 80 80 VRB 3 6 29.98 1015 10 16 0.00 0.00
8:53 am 08:53 Sunny 47 8.3 39 3.9 74 74 WNW 6 9 30.01 1016 10 16 0.00 0.00
9:53 am 09:53 Sunny 49 9.4 40 4.4 71 71 NW 12 19 30.03 1017 10 16 0.00 0.00
10:53 am 10:53 Sunny 52 11.1 40 4.4 64 64 WNW 8 13 30.02 1017 10 16 0.00 0.00
11:53 am 11:53 Sunny 56 13.3 38 3.3 51 51 NW 9 15 30.01 1016 10 16 0.00 0.00
12:53 pm 12:53 Sunny 60 15.6 37 2.8 42 42 NNW 13 20 30.00 1016 10 16 0.00 0.00
1:53 pm 13:53 Sunny 63 17.2 36 2.2 37 37 NW 10 17 29.97 1015 10 16 0.00 0.00
2:53 pm 14:53 Sunny 66 18.9 35 1.7 32 32 NNW 10 17 29.94 1014 10 16 0.00 0.00
3:53 pm 15:53 Sunny 67 19.4 36 2.2 32 32 NNW 13 20 29.93 1013 10 16 0.00 0.00
5:53 pm 17:53 Sunny 65 18.3 37 2.8 36 36 NNW 7 11 29.93 1014 10 16 0.00 0.00
6:53 pm 18:53 Sunny 61 16.1 38 3.3 43 43 NW 5 7 29.95 1014 10 16 0.00 0.00
7:53 pm 19:53 Clear 56 13.3 38 3.3 51 51 Calm 29.94 1014 10 16 0.00 0.00
8:53 pm 20:53 Clear 53 11.7 41 5 64 64 Calm 29.94 1014 10 16 0.00 0.00
9:53 pm 21:53 Clear 52 11.1 40 4.4 64 64 Calm 29.95 1014 10 16 0.00 0.00
10:53 pm 22:53 Clear 48 8.9 43 6.1 83 83 Calm 29.96 1015 10 16 0.00 0.00
11:53 pm 23:53 Clear 49 9.4 41 5 74 74 WSW 3 6 29.96 1015 10 16 0.00 0.00

Powered by AerisWeather